Cosmos 1805 - Orbit

View from above orbital plane
View from above orbital plane
View from above satellite
View from above satellite

Ground track
Ground track

The orbit data is extracted from the following two-line orbital elements,

1 17191U 86097A   13168.48386731  .00000585  00000-0  39006-4 0  6401
2 17191 082.4995 020.4372 0010401 025.2564 334.9169 15.05146946443339
Epoch (UTC): 17 June 2013 11:36:46
Eccentricity: 0.0010401
inclination: 82.4995°
perigee height: 544 km
apogee height: 558 km
right ascension of ascending node: 20.4372°
argument of perigee: 25.2564°
revolutions per day: 15.05146946
mean anomaly at epoch: 334.9169°
orbit number at epoch: 44333

The dashed part of the orbit path shows where the satellite is in the earth's shadow,  

Developed and maintained by Chris Peat, Heavens-Above GmbH. Please read the updated FAQ before sending e-mail. Imprint. DLR